Flag for Austria Weather past 2 weeks in Eferding, Upper Austria, Austria

Now
59 °F

Scattered clouds.


Feels Like: 59 °F
Forecast: 49 / 71 °F
Wind: 6 mph from East

Location: Linz / Hoersching-Flughafen

Current Time: Aug 22, 2014 at 10:07:47 AM

Latest Report: Aug 22, 2014 at 9:00 AM


Visibility: 14 mi

Pressure: 30.01 "Hg

Humidity: 81%

Dew point: 53 °F

Location of EferdingLocation

Historic Weather in Eferding — Graph

°F

Eferding temperature yesterday

Maximum temperature yesterday: 67 °F (at 5:00 PM)
Minimum temperature yesterday: 53 °F (at 6:00 AM)
Average temperature yesterday: 59 °F

Past Weeks' High & Low Weather Summary

 TemperatureHumidityPressure
High83 °F (Aug 10, 5:00 PM)97% (Aug 21, 2:00 AM)30.15 "Hg (Aug 21, 2:00 AM)
Low51 °F (Aug 17, 4:00 AM)39% (Aug 8, 5:00 PM)29.68 "Hg (Aug 13, 7:00 PM)
Average63 °F77%29.96 "Hg
* Reported Aug 7 8:00 AM — Aug 22 8:00 AM, Eferding, Weather by CustomWeather, © 2014

Note: Actual official high and low records may vary slightly from our data, if they occured in-between our weather recording intervals... More about our weather records

Advertising

Eferding weather history for previous 24 hours

 ConditionsComfort  
Time TempWeatherWind HumidityBarometerVisibility
8:00 AM
Aug 22
54 °FPassing clouds.N/A92%30.03 "Hg9 mi
7:00 AM53 °FPartly sunny.N/A94%30.03 "Hg11 mi
6:00 AM53 °FPassing clouds.N/A89%30.03 "Hg19 mi
5:00 AM53 °FOvercast.N/A89%30.03 "Hg19 mi
4:00 AM54 °FOvercast.N/A89%30.03 "Hg16 mi
3:00 AM56 °FOvercast.N/A86%30.03 "Hg25 mi
2:00 AM56 °FOvercast.N/A81%30.03 "Hg18 mi
1:00 AM56 °FOvercast.N/A82%30.04 "Hg22 mi
12:00 AM56 °FOvercast.N/A82%30.05 "Hg28 mi
11:00 PM
Aug 21
56 °FPassing clouds.N/A84%30.05 "Hg22 mi
10:00 PM57 °FPassing clouds.N/A82%30.04 "Hg25 mi
9:00 PM58 °FPassing clouds.N/A82%30.04 "Hg28 mi
8:00 PM62 °FPartly sunny.N/A58%30.02 "Hg31 mi
7:00 PM65 °FScattered clouds.N/A52%30.01 "Hg28 mi
6:00 PM67 °FScattered clouds.N/A53%30.01 "Hg19 mi
5:00 PM67 °FScattered clouds.N/A55%30.01 "Hg17 mi
4:00 PM65 °FScattered clouds.5 mph57%30.03 "Hg19 mi
3:00 PM64 °FPartly sunny.5 mph61%30.04 "Hg22 mi
2:00 PM61 °FScattered clouds.6 mph72%30.06 "Hg12 mi
1:00 PM61 °FOvercast.5 mph82%30.07 "Hg14 mi
12:00 PM59 °FRain showers. Overcast.3 mph89%30.07 "Hg5 mi
11:00 AM59 °FLow clouds.N/A85%30.07 "Hg11 mi
10:00 AM57 °FRain showers. Low clouds.N/A87%30.07 "Hg10 mi
Weather by CustomWeather, © 2014

See weather overviewHow to use our weather pages